This is the latest recevied weather packets stored in our database for station/object KB9ZGZ. If no packets are shown the sender has not sent any weather packets the latest 1 day(s).
| Time | Temp. | Humidity | Pressure | Rain* | Wind** | Luminosity | Snow |
|---|---|---|---|---|---|---|---|
| 1778013956 | 10° C | 87% | 1005.4 hPa | 0 mm | 0.45 m/s, 167° | - | - |
| 1778013055 | 9.44° C | 86% | 1005.8 hPa | 0 mm | 0.45 m/s, 323° | - | - |
| 1778012149 | 10° C | 86% | 1005.9 hPa | 0 mm | 0.45 m/s, 325° | - | - |
| 1778011245 | 10° C | 87% | 1005.9 hPa | 0 mm | 0.45 m/s, 188° | - | - |
| 1778010352 | 10° C | 87% | 1006.2 hPa | 0 mm | 0.45 m/s, 337° | - | - |
| 1778009442 | 10° C | 87% | 1006.2 hPa | 0 mm | 0.45 m/s, 187° | - | - |
| 1778008541 | 10° C | 86% | 1006.6 hPa | 0 mm | 0 m/s | - | - |
| 1778007637 | 10.56° C | 86% | 1006.8 hPa | 0 mm | 0 m/s | - | - |
| 1778006736 | 10.56° C | 86% | 1006.8 hPa | 0 mm | 0.45 m/s, 199° | - | - |
| 1778005835 | 10.56° C | 84% | 1006.4 hPa | 0 mm | 0.45 m/s, 252° | - | - |
| 1778004933 | 11.11° C | 84% | 1006.3 hPa | 0 mm | 0 m/s | - | - |
| 1778004029 | 11.11° C | 82% | 1006.2 hPa | 0 mm | 0.45 m/s, 158° | - | - |
| 1778003127 | 11.11° C | 77% | 1006.1 hPa | 0 mm | 0 m/s | - | - |
| 1778002238 | 11.11° C | 78% | 1005.7 hPa | 0 mm | 0 m/s | - | - |
| 1778001325 | 11.11° C | 75% | 1005.8 hPa | 0 mm | 0.45 m/s, 109° | - | - |
| 1778000425 | 11.67° C | 75% | 1005.8 hPa | 0 mm | 0.45 m/s, 216° | - | - |
| 1777999540 | 11.67° C | 75% | 1005.6 hPa | 0.25 mm | 0 m/s | - | - |
| 1777998617 | 11.11° C | 74% | 1005.6 hPa | 0.25 mm | 0.89 m/s, 194° | - | - |
| 1777997717 | 11.11° C | 74% | 1005.5 hPa | 0.25 mm | 0.45 m/s, 312° | - | - |
| 1777996814 | 11.11° C | 73% | 1005.2 hPa | 0.25 mm | 0.89 m/s, 329° | - | - |
| 1777995914 | 11.11° C | 74% | 1005 hPa | 0.25 mm | 1.34 m/s, 27° | - | - |
| 1777995013 | 11.67° C | 75% | 1004.6 hPa | 0.25 mm | 0.89 m/s, 354° | - | - |
| 1777994117 | 11.11° C | 76% | 1004.5 hPa | 0.25 mm | 0.89 m/s, 317° | - | - |
| 1777993210 | 11.11° C | 80% | 1004.1 hPa | 0.25 mm | 0.89 m/s, 316° | - | - |
| 1777992311 | 10° C | 79% | 1004.2 hPa | 0.25 mm | 0.89 m/s, 328° | - | - |
* Rain since midnight (hover to see other rain measurements)
** Current wind speed in m/s (hover to see current wind gust speed)